Regional Weather Roundup
Issued by NWS

Home | Current Version | Previous Version | Graphics & Text | Print | Product List | Glossary On
Versions: 1 2 3 4 5 6 7 8 9 10 11 12 13 14 15 16 17 18 19 20 21 22 23 24 25 26 27
000
ASUS45 KBOU 240007
RWRCO

WEATHER ROUNDUP FOR COLORADO
NATIONAL WEATHER SERVICE DENVER/BOULDER CO
600 PM MDT FRI JUN 23 2017

NOTE: "FAIR" INDICATES FEW OR NO CLOUDS BELOW 12000 FEET WITH NO
SIGNIFICANT WEATHER AND/OR OBSTRUCTIONS TO VISIBILITY.

COZ001>005-013-030-031-240100-
...NORTHWEST COLORADO...

CITY           SKY/WX    TMP DP  RH WIND       PRES   REMARKS
CRAIG          FAIR      81  24  12 NW8       30.18F
HAYDEN         FAIR      75  27  16 W9G16     30.21S
MEEKER         FAIR      80  21  11 VRB5      30.18F
RABBIT EARS PA FAIR      55  28  35 NW10G23   30.47S
STEAMBOAT SPGS FAIR      74  29  19 W9        30.22F
WALDEN         FAIR      70  30  23 NW15      30.31S
$$

COZ006>008-011-240100-
...WEST CENTRAL VALLEYS...

CITY           SKY/WX    TMP DP  RH WIND       PRES   REMARKS
GRAND JUNCTION FAIR      93  17   6 W13       30.00F
MONTROSE       FAIR      88  20   8 N16       30.09S
EAGLE          SUNNY     82  19   9 NW14G22   30.17R
RIFLE          FAIR      88  24  10 N10G22    30.07F
DELTA          FAIR      95  14   5 NW14G21   30.04S
NUCLA          FAIR      90  19   7 N12G22    30.13S
$$

COZ017>023-064>068-240100-
...SOUTHWEST COLORADO...

CITY           SKY/WX    TMP DP  RH WIND       PRES   REMARKS
DURANGO        FAIR      88  17   7 NW21G30   30.12S
CORTEZ         FAIR      92  13   5 N20G30    30.08S
PAGOSA SPRINGS FAIR      86   5   4 W20G28    30.19R
TELLURIDE      NOT AVBL
WOLF CREEK PAS FAIR      63   9  12 NW8G20    30.60S
$$

COZ009-010-012-014-032>034-037-058>063-240100-
...CENTRAL COLORADO...

CITY           SKY/WX    TMP DP  RH WIND       PRES   REMARKS
ASPEN          FAIR      78  18  10 NW17G25   30.23S
BUENA VISTA    FAIR      73  40  30 SE13      30.21S
COPPER MTN     FAIR      61  18  18 NW24G32   30.55S
BERTHOUD PASS  FAIR      50  36  57 NW23G31   30.58R
COTTONWOOD PAS FAIR      75   7   7 NW7       30.37S
GUNNISON       FAIR      80  22  11 NW14      30.22F
KREMMLING      NOT AVBL
LEADVILLE      FAIR      68   8   9 W18G24    30.38S
MONARCH PASS   FAIR      63  19  19 W25G36    30.65S
SALIDA         FAIR      67  47  48 SE21G32   30.27S
SUNLIGHT       FAIR      61  21  21 W8G18     30.52S
WILKERSON PASS FAIR      52  39  62 N6        30.51R
$$

COZ069>075-240100-
...SAN LUIS VALLEY/SANGRE DE CRISTO MOUNTAINS...

CITY           SKY/WX    TMP DP  RH WIND       PRES   REMARKS
ALAMOSA        NOT AVBL
DEL NORTE      FAIR      86   8   5 NW17G24   30.17S
LA VETA PASS   LGT RAIN  45  41  87 N16       30.50S VSB<1/4
SAGUACHE       FAIR      82  12   7 N21G32    30.20R
$$

COZ035-036-038>040-240100-
...NORTHERN COLORADO FRONT RANGE...

CITY           SKY/WX    TMP DP  RH WIND       PRES   REMARKS
DENVER INTL AP CLOUDY    61  45  55 S6        30.25S
DMNS CITY PARK   N/A     58  46  64 SE7       30.26S
AURORA         PTSUNNY   58  47  65 SW6       30.27S
FRONT RANGE AP CLOUDY    63  46  55 S10       30.26S
ERIE MUNI ARPT PTSUNNY   61  46  57 W3        30.25S
BOULDER MUN AP PTSUNNY   61  45  55 SW3       30.25S
CENTENNIAL     CLOUDY    54  46  74 CALM      30.28R
BROOMFIELD     CLOUDY    59  46  63 SW6       30.28S
FORT COLLINS   FAIR      64  46  52 SW10      30.24F
LONGMONT       PTSUNNY   65  45  48 SW3       30.26S
$$

COZ041-046-047-076>085-087-088-240100-
...PIKES PEAK/PALMER DIVIDE AND SOUTHERN FOOTHILLS...

CITY           SKY/WX    TMP DP  RH WIND       PRES   REMARKS
COLO. SPRINGS  CLOUDY    57  46  66 E7        30.28S
A. F. ACADEMY  CLOUDY    54  46  74 W6        30.28S
SCHRIEVER AFB  CLOUDY    56  45  66 SE7       30.28S
CHEYENNE MTN   CLOUDY    51  46  83 S3        30.25S
ELLICOTT       CLOUDY   N/A N/A N/A S5        30.27R
FALCON           N/A     54  44  67 S9        30.31S
FORT CARSON    CLOUDY    57  47  70 SE5       30.26R
LIMON          FAIR      63  43  48 S5        30.25S
MONUMENT HILL  CLOUDY    52  43  71 SE5       30.32S
CANON CITY     CLOUDY    61  52  72 E3        30.24S
WALSENBURG     CLOUDY    59  50  72 N6        30.25S
TRINIDAD       FAIR      63  48  58 SE5       30.22F
$$

COZ042>045-048>051-090-091-240100-
...NORTHEAST COLORADO...

CITY           SKY/WX    TMP DP  RH WIND       PRES   REMARKS
GREELEY ARPT   FAIR      68  45  43 S5        30.23F
AKRON          FAIR      68  41  37 CALM      30.21S
BURLINGTON     CLOUDY    66  47  50 W6        30.19F
WRAY           FAIR      73  41  31 N8        30.17S
YUMA           FAIR      68  41  37 N3        30.19S
STERLING       FAIR      70  45  40 S6        30.17S
HOLYOKE        NOT AVBL
FORT MORGAN    FAIR      67  40  37 SW3       30.22S
$$

COZ086-089-092>099-240100-
...SOUTHEAST COLORADO...

CITY           SKY/WX    TMP DP  RH WIND       PRES   REMARKS
PUEBLO         CLOUDY    65  49  56 NE6       30.20F
LA JUNTA       CLOUDY    71  45  39 E8        30.18S
LAMAR          FAIR      73  44  35 NE8       30.14F
SPRINGFIELD      N/A     69  46  43 E9        30.16F
$$




USA.gov is the U.S. government's official web portal to all federal, state and local government web resources and services.